[[{"header":{"parameterUnit":"m.s-1","parameterCategory":1,"la1":30.2991,"la2":30.254,"lo1":-89.0895,"lo2":-89.0444,"dy":0.0017,"dx":0.0017,"nx":28,"ny":28,"refTime":"2023-11-14T03:00:00:Z","depth":0,"parameterNumber":2,"parameterNumberName":"U-component_of_WINDS"},"data":[0,0,0,0,0,0,0,0,0,0,0,0,0,0,0,0,0,0,0,0,0,0,0,0,0,0,0,0,0,0,0,0,0,0,0,0,0,0,0,0,0,0,0,0,0,0,0,0,0,0,0,0,0,0,0,0,0,0,-4.5524,-4.5527,0,-4.5729,-4.5731,-4.5733,-4.5675,-4.5671,-4.5666,-4.5662,-4.5877,-4.5887,-4.5896,0,0,0,0,0,0,0,0,0,0,0,0,0,-4.5088,-4.5096,-4.5524,-4.5527,-4.5529,-4.5728,-4.5731,-4.5734,-4.5676,-4.567,-4.5665,-4.566,-4.5874,-4.5886,-4.5897,0,0,0,0,0,0,0,0,0,0,0,0,0,-4.5284,-4.5099,-4.5524,-4.5524,-4.5526,-4.5728,-4.5731,-4.5735,-4.5677,-4.567,-4.5664,-4.5658,-4.587,-4.5885,-4.5899,-4.6115,0,0,-4.5943,-4.5949,0,0,0,0,0,0,0,0,-4.5273,-4.53,-4.5521,-4.5524,-4.5527,-4.567,-4.5656,-4.5862,-4.5678,-4.562,-4.5662,-4.5655,-4.5814,-4.5833,-4.5885,-4.6125,-4.6134,-4.5944,-4.5953,-4.5959,-4.5963,0,0,0,0,0,0,0,-4.5259,-4.5291,-4.5605,-4.5525,-4.5528,-4.5516,-4.5536,-4.5695,-4.575,-4.5624,-4.562,-4.5645,-4.5814,-4.5871,-4.589,-4.6137,-4.5944,-4.5957,-4.5966,-4.5971,-4.6567,-4.6574,0,0,0,0,0,0,-4.5243,-4.528,-4.5599,-4.5611,-4.5381,-4.5529,-4.5552,-4.563,-4.5748,-4.576,-4.565,-4.5642,-4.585,-4.5873,-4.5897,-4.616,-4.5959,-4.5973,-4.5981,-4.656,-4.6568,-4.6576,0,0,0,0,0,0,-4.5234,-4.5272,-4.559,-4.5445,-4.5484,-4.5543,-4.5631,-4.5638,-4.5695,-4.5768,-4.5778,-4.5698,-4.5845,-4.5877,-4.6061,-4.6166,-4.5979,-4.5993,-4.6551,-4.6562,-4.6572,-4.6685,0,0,0,0,0,0,-4.5222,-4.5269,-4.535,-4.5447,-4.5492,-4.575,-4.5638,-4.5646,-4.5719,-4.571,-4.5815,-4.5827,-4.5843,-4.604,-4.6076,-4.6183,-4.6004,-4.6542,-4.6556,-4.6569,-4.6673,-4.6699,-4.6721,0,0,0,0,0,-4.5206,-4.5375,-4.5355,-4.5394,-4.5595,-4.5756,-4.5782,-4.5796,-4.5728,-4.5811,-4.5858,-4.5823,-4.6148,-4.6059,-4.6099,-4.6212,-4.6536,-4.6552,-4.6568,-4.6662,-4.6694,-4.672,0,0,0,0,0,0,-4.5291,-4.5387,-4.5366,-4.5571,-4.5656,-4.5746,-4.5851,-4.5829,-4.5936,-4.5923,-4.5937,-4.5961,-4.6151,-4.6199,-4.6099,-4.6428,-4.6332,-4.6357,-4.639,-4.6421,-4.6445,-4.643,-4.6016,0,0,0,0,0,-4.5333,-4.5454,-4.5532,-4.5705,-4.5749,-4.5793,-4.5864,-4.5867,-4.5956,-4.5992,-4.6052,-4.6142,-4.6264,-4.6345,-4.6461,-4.6678,-4.6702,-4.6776,-4.68,-4.6819,-4.6842,-4.6963,-4.6997,-4.6629,-4.6629,-4.6628,0,0,-4.5422,-4.549,-4.5566,-4.5724,-4.579,-4.5918,-4.5824,-4.5962,-4.6057,-4.6013,-4.6192,-4.6239,-4.634,-4.6543,-4.6635,-4.6589,-4.6948,-4.684,-4.6855,-4.6867,-4.6983,-4.7018,-4.7049,-4.664,-4.6638,-4.6636,0,0,-4.565,-4.5712,-4.5864,-4.5932,-4.6032,-4.606,-4.6097,-4.6191,-4.6221,-4.6399,-4.637,-4.6484,-4.6693,-4.6767,-4.6832,-4.7088,-4.7062,-4.7126,-4.7253,-4.7371,-4.74,-4.7426,-4.7521,-4.7554,-4.7147,-4.7147,-4.7147,0,-4.5749,-4.5937,-4.5945,-4.6087,-4.6159,-4.6122,-4.6278,-4.6344,-4.6478,-4.653,-4.6475,-4.6739,-4.6804,-4.7025,-4.7087,-4.714,-4.7184,-4.7115,-4.7395,-4.7421,-4.7446,-4.7536,-4.7571,-4.7155,-4.7154,-4.7153,-4.7152,0,-4.6055,-4.6187,-4.6298,-4.6427,-4.6511,-4.6659,-4.6691,-4.6775,-4.6771,-4.6805,-4.6989,-4.7066,-4.7198,-4.725,-4.7247,-4.7471,-4.744,-4.739,-4.7295,-4.7488,-4.7573,-4.7607,-4.7165,-4.7163,-4.716,-4.7159,0,0,-4.6344,-4.6475,-4.6516,-4.6575,-4.6684,-4.6787,-4.6933,-4.7061,-4.7135,-4.7228,-4.7354,-4.7532,-4.7487,-4.7561,-4.7566,-4.7669,-4.7871,-4.7608,-4.761,-4.7657,-4.8126,-4.8165,-4.8204,-4.7852,-4.7859,-4.7864,-4.8118,0,-4.6584,-4.684,-4.6852,-4.7087,-4.721,-4.7177,-4.7306,-4.7387,-4.7424,-4.7535,-4.7575,-4.7702,-4.7632,-4.7677,-4.7777,-4.7825,-4.7966,-4.7806,-4.7973,-4.7978,-4.7951,-4.8248,-4.829,-4.8526,-4.8151,-4.8157,-4.8161,0,-4.6898,-4.7,-4.7247,-4.7339,-4.7391,-4.7506,-4.7625,-4.773,-4.7823,-4.7842,-4.7925,-4.7916,-4.8068,-4.7965,-4.8177,-4.8069,-4.8137,-4.8171,-4.8181,-4.82,-4.8084,-4.8279,-4.8602,-4.8639,-4.8213,-4.8209,-4.8205,0,-4.7088,-4.7287,-4.7461,-4.7512,-4.7623,-4.7705,-4.7755,-4.7841,-4.7918,-4.8022,-4.8072,-4.8193,-4.8261,-4.8356,-4.8381,-4.8302,-4.8594,-4.8492,-4.8617,-4.8617,-4.8683,-4.8679,-4.9025,-4.8721,-4.8721,-4.872,-4.8719,0,-4.7356,-4.7509,-4.7548,-4.7656,-4.7827,-4.7839,-4.8009,-4.8054,-4.813,-4.8248,-4.8226,-4.8337,-4.8361,-4.8478,-4.8498,-4.8673,-4.8703,-4.8725,-4.8729,-4.8729,-4.8727,-4.8776,-4.8762,-4.8729,-4.8727,-4.8726,-4.8724,0,-4.7598,-4.763,-4.7818,-4.7907,-4.7933,-4.8056,-4.8133,-4.8237,-4.827,-4.8419,-4.8455,-4.8508,-4.8644,-4.8677,-4.8839,-4.8853,-4.9061,-4.9047,-4.9029,-4.903,-4.9154,-4.9143,-4.9547,-4.9602,-4.9259,-4.9262,-4.9265,0,-4.7769,-4.7886,-4.7987,-4.8063,-4.8117,-4.824,-4.8318,-4.8334,-4.8417,-4.8531,-4.8623,-4.8756,-4.8863,-4.9083,-4.9137,-4.9262,-4.9254,-4.9387,-4.9273,-4.927,-4.926,-4.9254,-4.9268,-4.941,-4.9413,-4.9416,-4.9419,0,-4.807,-4.8079,-4.8191,-4.831,-4.8403,-4.8497,-4.8587,-4.8652,-4.8681,-4.8775,-4.8913,-4.8996,-4.9162,-4.9296,-4.9421,-4.9475,-4.9454,-4.9453,-4.949,-4.9492,-4.9479,-4.9491,-4.9092,-4.9445,-4.9442,-4.944,-4.9439,-4.9438,-4.8284,-4.8387,-4.8475,-4.8601,-4.867,-4.8755,-4.8858,-4.8903,-4.9018,-4.9153,-4.9155,-4.9307,-4.9398,-4.9564,-4.9625,-4.9746,-4.9705,-4.9757,-4.9771,-4.9784,-4.9797,-4.9456,-4.9768,-4.9767,-4.9767,-4.9766,-4.9766,0,-4.8586,-4.8641,-4.8756,-4.8882,-4.8982,-4.895,-4.9048,-4.9135,-4.9268,-4.9353,-4.9459,-4.9619,-4.9749,-4.9813,-4.9942,-5.0026,-5.002,-5.006,-5.0056,-5.007,-4.9824,-4.9781,-5.0063,-5.0063,-5.0063,-5.0063,-5.0063,-5.0063,-4.8755,-4.8929,-4.895,-4.9158,-4.9212,-4.9359,-4.9418,-4.9497,-4.9566,-4.9745,-4.9852,-4.9892,-4.997,-5.0105,-5.0223,-5.0239,-5.0289,-5.0335,-5.0347,-5.0117,-5.0086,-5.0058,-5.0018,-5.0345,-5.0346,-5.0583,-5.0585,-5.0587]},{"header":{"parameterUnit":"m.s-1","parameterCategory":1,"la1":30.2991,"la2":30.254,"lo1":-89.0895,"lo2":-89.0444,"dy":0.0017,"dx":0.0017,"nx":28,"ny":28,"refTime":"2023-11-14T03:00:00:Z","depth":0,"parameterNumber":3,"parameterNumberName":"V-component_of_WINDS"},"data":[0,0,0,0,0,0,0,0,0,0,0,0,0,0,0,0,0,0,0,0,0,0,0,0,0,0,0,0,0,0,0,0,0,0,0,0,0,0,0,0,0,0,0,0,0,0,0,0,0,0,0,0,0,0,0,0,0,0,-3.4295,-3.4295,0,-3.427,-3.427,-3.4269,-3.4215,-3.4214,-3.4213,-3.4212,-3.4187,-3.4188,-3.4188,0,0,0,0,0,0,0,0,0,0,0,0,0,-3.4295,-3.4296,-3.4295,-3.4294,-3.4294,-3.427,-3.427,-3.4269,-3.4215,-3.4214,-3.4213,-3.4211,-3.4187,-3.4188,-3.4188,0,0,0,0,0,0,0,0,0,0,0,0,0,-3.4285,-3.4296,-3.4295,-3.4264,-3.4261,-3.427,-3.427,-3.4269,-3.4215,-3.4214,-3.4212,-3.4211,-3.4187,-3.4188,-3.4188,-3.4225,0,0,-3.419,-3.419,0,0,0,0,0,0,0,0,-3.4286,-3.4285,-3.4269,-3.4266,-3.4263,-3.4244,-3.4261,-3.4254,-3.4216,-3.4233,-3.4212,-3.421,-3.4208,-3.4206,-3.4205,-3.4224,-3.4223,-3.419,-3.419,-3.4191,-3.4191,0,0,0,0,0,0,0,-3.4287,-3.4286,-3.4285,-3.4269,-3.4265,-3.4252,-3.4248,-3.4259,-3.423,-3.4231,-3.4227,-3.4225,-3.4206,-3.4205,-3.4204,-3.4223,-3.419,-3.4191,-3.4191,-3.4191,-3.4269,-3.427,0,0,0,0,0,0,-3.4292,-3.4287,-3.4286,-3.4284,-3.4271,-3.4253,-3.4249,-3.4252,-3.423,-3.4225,-3.4226,-3.4223,-3.4205,-3.4204,-3.4203,-3.4244,-3.4191,-3.4191,-3.4192,-3.4267,-3.4269,-3.4271,0,0,0,0,0,0,-3.4292,-3.4292,-3.4287,-3.4285,-3.4283,-3.4255,-3.4258,-3.4252,-3.4251,-3.4226,-3.4221,-3.4231,-3.4203,-3.4203,-3.422,-3.4243,-3.4191,-3.4192,-3.4265,-3.4268,-3.427,-3.4327,0,0,0,0,0,0,-3.4292,-3.4293,-3.4307,-3.4285,-3.4283,-3.4304,-3.4259,-3.4253,-3.4252,-3.4247,-3.4229,-3.4224,-3.4202,-3.4219,-3.422,-3.4243,-3.4192,-3.4263,-3.4266,-3.4269,-3.4323,-3.4331,-3.4338,0,0,0,0,0,-3.4293,-3.4324,-3.4308,-3.4308,-3.43,-3.4305,-3.4304,-3.4277,-3.4254,-3.4268,-3.4251,-3.4225,-3.424,-3.4221,-3.4222,-3.4245,-3.4261,-3.4265,-3.4269,-3.432,-3.433,-3.4338,0,0,0,0,0,0,-3.4349,-3.4321,-3.4302,-3.4328,-3.4319,-3.4296,-3.4312,-3.4289,-3.4287,-3.4282,-3.425,-3.4246,-3.4268,-3.4258,-3.4238,-3.4279,-3.4246,-3.4251,-3.4284,-3.4294,-3.4301,-3.4303,-3.4193,0,0,0,0,0,-3.4365,-3.4371,-3.4346,-3.4371,-3.4368,-3.4341,-3.4342,-3.4322,-3.4312,-3.4309,-3.4293,-3.4285,-3.4288,-3.429,-3.4291,-3.4321,-3.4316,-3.4337,-3.4345,-3.4351,-3.4355,-3.4369,-3.4378,-3.4284,-3.4284,-3.4284,0,0,-3.4397,-3.4382,-3.4388,-3.4382,-3.4373,-3.4381,-3.4338,-3.4348,-3.4353,-3.431,-3.4325,-3.4314,-3.4302,-3.4326,-3.4335,-3.4318,-3.438,-3.4356,-3.4361,-3.4362,-3.4374,-3.4383,-3.4391,-3.4286,-3.4286,-3.4285,0,0,-3.4459,-3.4449,-3.4468,-3.446,-3.4446,-3.4428,-3.4433,-3.4413,-3.4403,-3.4418,-3.4385,-3.4391,-3.4396,-3.4389,-3.4386,-3.4444,-3.4419,-3.4445,-3.4486,-3.45,-3.4507,-3.4514,-3.4534,-3.4541,-3.445,-3.445,-3.445,0,-3.4501,-3.4511,-3.4481,-3.4493,-3.449,-3.4451,-3.447,-3.4463,-3.4451,-3.4451,-3.4432,-3.4437,-3.4426,-3.4447,-3.4461,-3.446,-3.4464,-3.4447,-3.4508,-3.4515,-3.452,-3.4539,-3.4547,-3.4453,-3.4453,-3.4452,-3.4452,0,-3.4562,-3.457,-3.4587,-3.4575,-3.4575,-3.459,-3.4563,-3.4566,-3.4546,-3.4529,-3.4544,-3.453,-3.4527,-3.453,-3.4511,-3.4548,-3.4538,-3.4514,-3.4481,-3.4533,-3.455,-3.4557,-3.4457,-3.4456,-3.4455,-3.4455,0,0,-3.4661,-3.4632,-3.4638,-3.4632,-3.4614,-3.4619,-3.4632,-3.4629,-3.4632,-3.4625,-3.4635,-3.4639,-3.4617,-3.4614,-3.4593,-3.4606,-3.4652,-3.458,-3.4579,-3.4593,-3.4691,-3.4708,-3.4717,-3.4635,-3.4636,-3.4637,-3.4691,0,-3.4719,-3.4739,-3.4712,-3.4739,-3.4744,-3.4706,-3.4718,-3.4708,-3.4693,-3.4695,-3.4678,-3.4682,-3.4653,-3.465,-3.4661,-3.4644,-3.4671,-3.464,-3.4644,-3.4644,-3.4648,-3.4726,-3.4745,-3.4797,-3.4698,-3.4699,-3.47,0,-3.4789,-3.4784,-3.4811,-3.479,-3.4792,-3.4802,-3.4796,-3.4799,-3.4787,-3.4775,-3.4771,-3.4746,-3.4757,-3.4724,-3.4739,-3.4718,-3.4718,-3.471,-3.4711,-3.4711,-3.4675,-3.4727,-3.4813,-3.4821,-3.471,-3.4709,-3.4709,0,-3.4858,-3.4858,-3.4874,-3.487,-3.4846,-3.4854,-3.4844,-3.483,-3.4829,-3.4824,-3.4823,-3.482,-3.4818,-3.4815,-3.479,-3.4769,-3.4807,-3.4773,-3.4798,-3.4798,-3.4808,-3.4807,-3.4894,-3.4808,-3.4808,-3.4808,-3.4808,0,-3.4925,-3.4943,-3.4904,-3.4914,-3.4932,-3.4901,-3.492,-3.4906,-3.4894,-3.49,-3.4867,-3.4874,-3.484,-3.4843,-3.4823,-3.4838,-3.4837,-3.4828,-3.4822,-3.4831,-3.4832,-3.483,-3.4826,-3.481,-3.4809,-3.4809,-3.4809,0,-3.5005,-3.4979,-3.4994,-3.497,-3.4964,-3.4979,-3.4957,-3.4965,-3.4947,-3.4956,-3.4956,-3.4928,-3.493,-3.4904,-3.4901,-3.4887,-3.4911,-3.4899,-3.4915,-3.4911,-3.4937,-3.4935,-3.5026,-3.5036,-3.4944,-3.4945,-3.4946,0,-3.505,-3.5062,-3.5039,-3.504,-3.5032,-3.5035,-3.5034,-3.5003,-3.5003,-3.4989,-3.4998,-3.4997,-3.4994,-3.4998,-3.4978,-3.4975,-3.4963,-3.4995,-3.4962,-3.497,-3.4963,-3.4962,-3.4963,-3.5002,-3.5003,-3.5004,-3.5005,0,-3.5131,-3.5118,-3.5117,-3.5111,-3.511,-3.5105,-3.5097,-3.51,-3.5066,-3.5068,-3.5068,-3.5066,-3.5062,-3.5061,-3.5054,-3.5044,-3.5019,-3.5015,-3.502,-3.5029,-3.5037,-3.5032,-3.4933,-3.5013,-3.5012,-3.5012,-3.5011,-3.5011,-3.5194,-3.5203,-3.5188,-3.5188,-3.5178,-3.5171,-3.5177,-3.5159,-3.5159,-3.5153,-3.5135,-3.5139,-3.5125,-3.5113,-3.5105,-3.5107,-3.5091,-3.51,-3.5101,-3.5104,-3.5108,-3.5037,-3.5106,-3.5106,-3.5105,-3.5105,-3.5105,0,-3.5274,-3.5262,-3.5262,-3.5251,-3.5251,-3.5226,-3.5216,-3.5217,-3.5221,-3.521,-3.5207,-3.5208,-3.5206,-3.5185,-3.5181,-3.5187,-3.5175,-3.5187,-3.5186,-3.5184,-3.5123,-3.5118,-3.5196,-3.5196,-3.5196,-3.5196,-3.5196,-3.5196,-3.5315,-3.5329,-3.5313,-3.5322,-3.5309,-3.5312,-3.5308,-3.5301,-3.5292,-3.5294,-3.5292,-3.5278,-3.5263,-3.5257,-3.5254,-3.5248,-3.5248,-3.5264,-3.5254,-3.5197,-3.5188,-3.518,-3.5176,-3.5264,-3.5264,-3.5314,-3.5315,-3.5315]}]]